Change the Weather History Date:

Saturday, September 1, 2012

  Actual Average Record
Temperature  
Mean Temperature 76 °F -  
Max Temperature 90 °F 84 °F 93 °F (1985)
Min Temperature 63 °F 55 °F 46 °F (2010)
Cooling Degree Days 12    
Growing Degree Days 26 (Base 50)    
Moisture  
Dew Point 42 °F    
Average Humidity 32    
Maximum Humidity 57    
Minimum Humidity 10    
Precipitation  
Precipitation 0.00 in - - ()
Sea Level Pressure  
Sea Level Pressure 30.00 in    
Wind  
Wind Speed 7 mph (NNE)    
Max Wind Speed 32 mph    
Max Gust Speed 46 mph    
Visibility 10 miles    
Events      
Averages and records for this station are not official NWS values.
T = Trace of Precipitation, MM = Missing Value Source: NWS Daily Summary

Daily Weather History Graph

Daily Weather History Graph

Search for Another Location

Airport or City:

Trip Planner

Search our weather history database for the weather conditions in past years. The results will help you decide how hot, cold, wet, or windy it might be!

Date:

Astronomy

Sep. 01, 2012 Rise Set
Actual Time 6:44 AM MDT 7:40 PM MDT
Civil Twilight 6:17 AM MDT 8:06 PM MDT
Nautical Twilight 5:46 AM MDT 8:38 PM MDT
Astronomical Twilight 5:14 AM MDT 9:10 PM MDT
Moon 8:03 PM MDT (9/1) 7:51 AM MDT (9/1)
Length of Visible Light 13h 48m
Length of Day
12h 55m
Full, 98% of the Moon is Illuminated
Sep 1
Full
Sep 8
Last Quarter
Sep 15
New
Sep 22
First Quarter
Sep 29
Full

Hourly Weather History & Observations

Time (MDT) Temp. Dew Point Humidity Pressure Visibility Wind Dir Wind Speed Gust Speed Precip Events Conditions
12:53 AM 66.9 °F 33.1 °F 28% 29.94 in 10.0 mi Calm Calm - N/A   Partly Cloudy
1:53 AM 64.9 °F 35.1 °F 33% 29.95 in 10.0 mi NNE 4.6 mph - N/A   Clear
2:53 AM 64.0 °F 34.0 °F 33% 29.96 in 10.0 mi NNE 5.8 mph - N/A   Clear
3:53 AM 62.1 °F 35.1 °F 37% 29.96 in 10.0 mi NNE 6.9 mph - N/A   Clear
4:53 AM 62.1 °F 36.0 °F 38% 29.99 in 10.0 mi NE 4.6 mph - N/A   Clear
5:53 AM 64.0 °F 37.9 °F 38% 30.00 in 10.0 mi East 5.8 mph - N/A   Clear
6:53 AM 63.0 °F 39.0 °F 41% 30.01 in 10.0 mi ENE 5.8 mph - N/A   Scattered Clouds
7:53 AM 66.9 °F 39.0 °F 36% 30.03 in 10.0 mi East 4.6 mph - N/A   Partly Cloudy
8:53 AM 69.1 °F 41.0 °F 36% 30.05 in 10.0 mi ESE 8.1 mph - N/A   Clear
9:53 AM 73.9 °F 39.9 °F 29% 30.05 in 10.0 mi ESE 8.1 mph - N/A   Clear
10:53 AM 79.0 °F 41.0 °F 26% 30.06 in 10.0 mi ESE 4.6 mph - N/A   Scattered Clouds
11:53 AM 84.0 °F 43.0 °F 24% 30.03 in 10.0 mi SE 4.6 mph - N/A   Clear
12:53 PM 87.1 °F 41.0 °F 20% 30.01 in 10.0 mi WNW 6.9 mph - N/A   Clear
1:53 PM 87.1 °F 41.0 °F 20% 29.99 in 10.0 mi WNW 4.6 mph - N/A   Clear
2:53 PM 89.1 °F 41.0 °F 19% 29.96 in 10.0 mi WSW 8.1 mph 17.3 mph N/A   Clear
4:53 PM 87.1 °F 39.9 °F 19% 29.92 in 10.0 mi SSW 11.5 mph 19.6 mph N/A   Scattered Clouds
5:53 PM 84.0 °F 44.1 °F 25% 29.93 in 10.0 mi West 18.4 mph - N/A   Clear
6:53 PM 78.1 °F 46.9 °F 33% 29.95 in 5.0 mi NW 32.2 mph 46.0 mph N/A   Haze
7:53 PM 71.1 °F 54.0 °F 55% 30.04 in 10.0 mi NNW 23.0 mph 32.2 mph 0.00 in   Overcast
8:53 PM 69.1 °F 53.1 °F 57% 30.07 in 10.0 mi North 12.7 mph 28.8 mph 0.00 in   Overcast
9:53 PM 69.1 °F 52.0 °F 54% 30.06 in 10.0 mi North 11.5 mph - N/A   Partly Cloudy
10:53 PM 70.0 °F 50.0 °F 49% 30.02 in 10.0 mi NE 11.5 mph - N/A   Clear
11:53 PM 69.1 °F 50.0 °F 51% 30.00 in 10.0 mi NNE 5.8 mph - N/A   Scattered Clouds